| time (UTC) | temp F | wind direction | speed MPH | gust MPH | rain 1hr in | rain 24hr in | rain mn in | humidity % | barometer mb |
| 20260510062918 | 74 | 131 | 2.0 | 5.0 | 0.00 | 0.00 | 0.00 | 83 | 1009.2 |
| 20260510062419 | 74 | 141 | 3.0 | 7.0 | 0.00 | 0.00 | 0.00 | 83 | 1009.3 |
| 20260510061917 | 74 | 150 | 3.0 | 7.0 | 0.00 | 0.00 | 0.00 | 83 | 1009.3 |
| 20260510061416 | 75 | 121 | 3.0 | 7.0 | 0.00 | 0.00 | 0.00 | 83 | 1009.5 |
| 20260510060914 | 75 | 108 | 3.0 | 7.0 | 0.00 | 0.00 | 0.00 | 82 | 1009.5 |
| 20260510060414 | 75 | 112 | 3.0 | 6.0 | 0.00 | 0.00 | 0.00 | 82 | 1009.6 |
| 20260510055915 | 75 | 124 | 3.0 | 6.0 | 0.00 | 0.00 | 0.00 | 82 | 1009.5 |
| 20260510055413 | 75 | 121 | 3.0 | 6.0 | 0.00 | 0.00 | 0.00 | 82 | 1009.5 |
| 20260510054916 | 75 | 102 | 3.0 | 6.0 | 0.00 | 0.00 | 0.00 | 82 | 1009.4 |
| 20260510054416 | 75 | 108 | 3.0 | 6.0 | 0.00 | 0.00 | 0.00 | 82 | 1009.4 |
| 20260510053916 | 75 | 101 | 3.0 | 6.0 | 0.00 | 0.00 | 0.00 | 81 | 1009.4 |
| 20260510053415 | 75 | 89 | 3.0 | 6.0 | 0.00 | 0.00 | 0.00 | 81 | 1009.3 |
| 20260510052920 | 75 | 113 | 3.0 | 8.0 | 0.00 | 0.00 | 0.00 | 80 | 1009.1 |
| 20260510052915 | 75 | 106 | 3.0 | 8.0 | 0.00 | 0.00 | 0.00 | 81 | 1009.1 |
| 20260510052536 | 75 | 149 | 3.0 | 8.0 | 0.00 | 0.00 | 0.00 | 80 | 1009.1 |
| 20260510051415 | 75 | 158 | 4.0 | 8.0 | 0.00 | 0.00 | 0.00 | 79 | 1009.0 |
| 20260510050917 | 75 | 120 | 4.0 | 7.0 | 0.00 | 0.00 | 0.00 | 78 | 1008.9 |
| 20260510050912 | 75 | 139 | 4.0 | 8.0 | 0.00 | 0.00 | 0.00 | 79 | 1009.0 |
| 20260510045916 | 75 | 110 | 3.0 | 7.0 | 0.00 | 0.00 | 0.00 | 78 | 1008.9 |
| 20260510045911 | 75 | 98 | 3.0 | 7.0 | 0.00 | 0.00 | 0.00 | 78 | 1008.9 |
| 20260510045529 | 76 | 131 | 3.0 | 7.0 | 0.00 | 0.00 | 0.00 | 78 | 1009.0 |
| 20260510044410 | 76 | 75 | 3.0 | 7.0 | 0.00 | 0.00 | 0.00 | 77 | 1009.1 |
| 20260510043911 | 76 | 136 | 3.0 | 7.0 | 0.00 | 0.00 | 0.00 | 77 | 1009.0 |
| 20260510043410 | 76 | 96 | 3.0 | 7.0 | 0.00 | 0.00 | 0.00 | 77 | 1008.9 |
| 20260510042911 | 76 | 99 | 3.0 | 9.0 | 0.00 | 0.00 | 0.00 | 77 | 1008.9 |
| 20260510042412 | 76 | 113 | 3.0 | 9.0 | 0.00 | 0.00 | 0.00 | 77 | 1008.8 |
| 20260510041914 | 76 | 105 | 3.0 | 9.0 | 0.00 | 0.00 | 0.00 | 77 | 1008.9 |
| 20260510041909 | 76 | 113 | 3.0 | 9.0 | 0.00 | 0.00 | 0.00 | 77 | 1008.8 |
| 20260510041530 | 76 | 103 | 3.0 | 6.0 | 0.00 | 0.00 | 0.00 | 75 | 1009.1 |
| 20260510040915 | 76 | 97 | 3.0 | 6.0 | 0.00 | 0.00 | 0.00 | 75 | 1009.1 |
| 20260510040910 | 76 | 110 | 3.0 | 6.0 | 0.00 | 0.00 | 0.00 | 76 | 1009.0 |
| 20260510035416 | 77 | 102 | 3.0 | 7.0 | 0.00 | 0.00 | 0.00 | 74 | 1009.3 |
| 20260510035410 | 76 | 120 | 3.0 | 6.0 | 0.00 | 0.00 | 0.00 | 75 | 1009.2 |
| 20260510034909 | 76 | 112 | 3.0 | 7.0 | 0.00 | 0.00 | 0.00 | 74 | 1009.3 |
| 20260510033909 | 77 | 103 | 3.0 | 7.0 | 0.00 | 0.00 | 0.00 | 73 | 1009.2 |
| 20260510033410 | 77 | 115 | 2.0 | 7.0 | 0.00 | 0.00 | 0.00 | 73 | 1009.2 |
| 20260510032910 | 77 | 79 | 2.0 | 3.0 | 0.00 | 0.00 | 0.00 | 73 | 1009.2 |
| 20260510032409 | 77 | 98 | 1.0 | 3.0 | 0.00 | 0.00 | 0.00 | 73 | 1009.2 |
| 20260510031919 | 77 | 91 | 0.0 | 4.0 | 0.00 | 0.00 | 0.00 | 73 | 1009.2 |
| 20260510031913 | 77 | 101 | 0.0 | 4.0 | 0.00 | 0.00 | 0.00 | 73 | 1009.2 |
| 20260510031535 | 77 | 110 | 0.0 | 4.0 | 0.00 | 0.00 | 0.00 | 73 | 1009.2 |
| 20260510030409 | 77 | 110 | 0.0 | 4.0 | 0.00 | 0.00 | 0.00 | 72 | 1009.2 |
| 20260510025909 | 77 | 105 | 0.0 | 3.0 | 0.00 | 0.00 | 0.00 | 72 | 1009.1 |
| 20260510025414 | 78 | 108 | 1.0 | 4.0 | 0.00 | 0.00 | 0.00 | 69 | 1008.8 |
| 20260510025409 | 77 | 113 | 1.0 | 3.0 | 0.00 | 0.00 | 0.00 | 71 | 1009.1 |
| 20260510024907 | 78 | 96 | 1.0 | 4.0 | 0.00 | 0.00 | 0.00 | 70 | 1009.1 |
| 20260510023908 | 78 | 83 | 0.0 | 3.0 | 0.00 | 0.00 | 0.00 | 69 | 1008.9 |
| 20260510023406 | 78 | 87 | 1.0 | 3.0 | 0.00 | 0.00 | 0.00 | 68 | 1008.9 |
| 20260510022908 | 79 | 89 | 1.0 | 3.0 | 0.00 | 0.00 | 0.00 | 68 | 1008.7 |
| 20260510022407 | 79 | 89 | 1.0 | 5.0 | 0.00 | 0.00 | 0.00 | 66 | 1008.6 |
| 20260510021915 | 80 | 89 | 2.0 | 5.0 | 0.00 | 0.00 | 0.00 | 64 | 1008.5 |
| 20260510021909 | 79 | 89 | 2.0 | 5.0 | 0.00 | 0.00 | 0.00 | 65 | 1008.6 |
| 20260510021528 | 80 | 70 | 2.0 | 5.0 | 0.00 | 0.00 | 0.00 | 62 | 1008.5 |
| 20260510021025 | 80 | 84 | 1.0 | 5.0 | 0.00 | 0.00 | 0.00 | 59 | 1008.4 |
| 20260510015910 | 80 | 75 | 0.0 | 0.0 | 0.00 | 0.00 | 0.00 | 56 | 1008.2 |
| 20260510015904 | 80 | 75 | 0.0 | 0.0 | 0.00 | 0.00 | 0.00 | 57 | 1008.3 |
| 20260510014904 | 80 | 75 | 0.0 | 0.0 | 0.00 | 0.00 | 0.00 | 55 | 1008.2 |
| 20260510014401 | 81 | 75 | 0.0 | 0.0 | 0.00 | 0.00 | 0.00 | 55 | 1008.1 |
| 20260510013907 | 82 | 75 | 0.0 | 0.0 | 0.00 | 0.00 | 0.00 | 55 | 1008.0 |
| 20260510013900 | 81 | 75 | 0.0 | 0.0 | 0.00 | 0.00 | 0.00 | 55 | 1008.1 |
| 20260510013400 | 81 | 75 | 0.0 | 0.0 | 0.00 | 0.00 | 0.00 | 55 | 1008.0 |
| 20260510012400 | 82 | 75 | 0.0 | 0.0 | 0.00 | 0.00 | 0.00 | 54 | 1008.0 |
| 20260510011858 | 82 | 75 | 0.0 | 0.0 | 0.00 | 0.00 | 0.00 | 54 | 1007.9 |
| 20260510011356 | 83 | 75 | 0.0 | 0.0 | 0.00 | 0.00 | 0.00 | 53 | 1008.0 |
| 20260510010857 | 83 | 75 | 0.0 | 0.0 | 0.00 | 0.00 | 0.00 | 53 | 1007.9 |
| 20260510010355 | 84 | 75 | 0.0 | 2.0 | 0.00 | 0.00 | 0.00 | 52 | 1007.9 |
| 20260510005854 | 84 | 75 | 0.0 | 2.0 | 0.00 | 0.00 | 0.00 | 51 | 1007.8 |
| 20260510005356 | 85 | 75 | 1.0 | 2.0 | 0.00 | 0.00 | 0.00 | 50 | 1007.8 |
| 20260510004902 | 86 | 75 | 0.0 | 0.0 | 0.00 | 0.00 | 0.00 | 47 | 1007.7 |
| 20260510004855 | 85 | 75 | 1.0 | 2.0 | 0.00 | 0.00 | 0.00 | 49 | 1007.8 |
| 20260510004356 | 86 | 75 | 0.0 | 2.0 | 0.00 | 0.00 | 0.00 | 48 | 1007.8 |
| 20260510003400 | 87 | 75 | 0.0 | 0.0 | 0.00 | 0.00 | 0.00 | 46 | 1007.7 |
| 20260510003356 | 87 | 75 | 0.0 | 0.0 | 0.00 | 0.00 | 0.00 | 46 | 1007.7 |
| 20260510002356 | 88 | 75 | 0.0 | 0.0 | 0.00 | 0.00 | 0.00 | 45 | 1007.6 |
| 20260510001856 | 88 | 75 | 0.0 | 0.0 | 0.00 | 0.00 | 0.00 | 45 | 1007.6 |
| 20260510001356 | 88 | 75 | 0.0 | 1.0 | 0.00 | 0.00 | 0.00 | 44 | 1007.6 |
| 20260510000855 | 88 | 75 | 0.0 | 1.0 | 0.00 | 0.00 | 0.00 | 42 | 1007.6 |
| 20260510000356 | 89 | 75 | 0.0 | 1.0 | 0.00 | 0.00 | 0.00 | 40 | 1007.6 |
| 20260509235855 | 89 | 75 | 0.0 | 1.0 | 0.00 | 0.00 | 0.00 | 39 | 1007.5 |
| 20260509235355 | 90 | 76 | 0.0 | 0.0 | 0.00 | 0.00 | 0.00 | 38 | 1007.5 |
| 20260509234901 | 90 | 79 | 0.0 | 0.0 | 0.00 | 0.00 | 0.00 | 42 | 1007.4 |
| 20260509234856 | 90 | 79 | 0.0 | 0.0 | 0.00 | 0.00 | 0.00 | 40 | 1007.4 |
| 20260509233853 | 90 | 98 | 0.0 | 1.0 | 0.00 | 0.00 | 0.00 | 42 | 1007.4 |
| 20260509233350 | 90 | 69 | 0.0 | 1.0 | 0.00 | 0.00 | 0.00 | 41 | 1007.4 |
| 20260509232848 | 90 | 354 | 0.0 | 1.0 | 0.00 | 0.00 | 0.00 | 41 | 1007.4 |
| 20260509232347 | 90 | 68 | 0.0 | 5.0 | 0.00 | 0.00 | 0.00 | 42 | 1007.4 |
| 20260509231846 | 91 | 54 | 0.0 | 5.0 | 0.00 | 0.00 | 0.00 | 43 | 1007.4 |
| 20260509231349 | 91 | 110 | 1.0 | 5.0 | 0.00 | 0.00 | 0.00 | 44 | 1007.4 |
| 20260509231345 | 91 | 26 | 1.0 | 5.0 | 0.00 | 0.00 | 0.00 | 42 | 1007.4 |
| 20260509230843 | 91 | 335 | 1.0 | 5.0 | 0.00 | 0.00 | 0.00 | 42 | 1007.4 |
| 20260509225844 | 91 | 1 | 1.0 | 4.0 | 0.00 | 0.00 | 0.00 | 43 | 1007.5 |
| 20260509225343 | 91 | 343 | 1.0 | 5.0 | 0.00 | 0.00 | 0.00 | 44 | 1007.5 |
| 20260509224843 | 91 | 333 | 0.0 | 5.0 | 0.00 | 0.00 | 0.00 | 45 | 1007.4 |
| 20260509224343 | 90 | 325 | 0.0 | 7.0 | 0.00 | 0.00 | 0.00 | 45 | 1007.4 |
| 20260509223843 | 90 | 66 | 1.0 | 7.0 | 0.00 | 0.00 | 0.00 | 47 | 1007.4 |
| 20260509223344 | 90 | 91 | 1.0 | 7.0 | 0.00 | 0.00 | 0.00 | 46 | 1007.4 |
| 20260509222848 | 91 | 37 | 0.0 | 6.0 | 0.00 | 0.00 | 0.00 | 46 | 1007.4 |
| 20260509222842 | 91 | 60 | 0.0 | 7.0 | 0.00 | 0.00 | 0.00 | 46 | 1007.4 |
| 20260509221843 | 91 | 41 | 0.0 | 6.0 | 0.00 | 0.00 | 0.00 | 44 | 1007.4 |
| 20260509221343 | 91 | 331 | 1.0 | 6.0 | 0.00 | 0.00 | 0.00 | 46 | 1007.4 |
| 20260509220841 | 91 | 355 | 2.0 | 6.0 | 0.00 | 0.00 | 0.00 | 46 | 1007.4 |
| 20260509220338 | 91 | 34 | 1.0 | 6.0 | 0.00 | 0.00 | 0.00 | 46 | 1007.3 |
| 20260509215839 | 91 | 342 | 1.0 | 6.0 | 0.00 | 0.00 | 0.00 | 47 | 1007.3 |
| 20260509215339 | 91 | 328 | 0.0 | 6.0 | 0.00 | 0.00 | 0.00 | 45 | 1007.4 |
| 20260509214844 | 91 | 356 | 2.0 | 6.0 | 0.00 | 0.00 | 0.00 | 48 | 1007.5 |
| 20260509214839 | 91 | 356 | 1.0 | 6.0 | 0.00 | 0.00 | 0.00 | 46 | 1007.5 |
| 20260509213845 | 90 | 124 | 1.0 | 5.0 | 0.00 | 0.00 | 0.00 | 45 | 1007.7 |
| 20260509213837 | 90 | 337 | 2.0 | 6.0 | 0.00 | 0.00 | 0.00 | 49 | 1007.5 |
| 20260509213337 | 90 | 291 | 2.0 | 6.0 | 0.00 | 0.00 | 0.00 | 46 | 1007.6 |
| 20260509212838 | 90 | 347 | 1.0 | 6.0 | 0.00 | 0.00 | 0.00 | 48 | 1007.6 |
| 20260509211843 | 91 | 295 | 1.0 | 6.0 | 0.00 | 0.00 | 0.00 | 41 | 1007.9 |
| 20260509211838 | 90 | 303 | 2.0 | 6.0 | 0.00 | 0.00 | 0.00 | 42 | 1007.8 |
| 20260509210836 | 91 | 319 | 1.0 | 4.0 | 0.00 | 0.00 | 0.00 | 44 | 1007.9 |
| 20260509210336 | 91 | 30 | 1.0 | 4.0 | 0.00 | 0.00 | 0.00 | 48 | 1008.0 |
| 20260509205838 | 90 | 26 | 2.0 | 7.0 | 0.00 | 0.00 | 0.00 | 46 | 1008.1 |
| 20260509205341 | 90 | 316 | 2.0 | 7.0 | 0.00 | 0.00 | 0.00 | 46 | 1008.2 |
| 20260509205337 | 90 | 295 | 2.0 | 7.0 | 0.00 | 0.00 | 0.00 | 44 | 1008.2 |
| 20260509204336 | 90 | 338 | 2.0 | 7.0 | 0.00 | 0.00 | 0.00 | 47 | 1008.2 |
| 20260509203841 | 91 | 351 | 1.0 | 6.0 | 0.00 | 0.00 | 0.00 | 50 | 1008.3 |
| 20260509203836 | 91 | 53 | 1.0 | 6.0 | 0.00 | 0.00 | 0.00 | 48 | 1008.3 |
| 20260509202837 | 91 | 82 | 1.0 | 7.0 | 0.00 | 0.00 | 0.00 | 50 | 1008.4 |
| 20260509202334 | 91 | 94 | 0.0 | 7.0 | 0.00 | 0.00 | 0.00 | 52 | 1008.4 |
| 20260509201834 | 90 | 283 | 2.0 | 7.0 | 0.00 | 0.00 | 0.00 | 51 | 1008.5 |
| 20260509201334 | 89 | 18 | 1.0 | 7.0 | 0.00 | 0.00 | 0.00 | 49 | 1008.5 |
| 20260509200834 | 90 | 278 | 0.0 | 4.0 | 0.00 | 0.00 | 0.00 | 50 | 1008.6 |
| 20260509200334 | 89 | 60 | 1.0 | 5.0 | 0.00 | 0.00 | 0.00 | 50 | 1008.7 |
| 20260509195840 | 89 | 328 | 2.0 | 6.0 | 0.00 | 0.00 | 0.00 | 50 | 1008.8 |
| 20260509195835 | 89 | 49 | 2.0 | 5.0 | 0.00 | 0.00 | 0.00 | 52 | 1008.8 |
| 20260509194834 | 89 | 53 | 2.0 | 6.0 | 0.00 | 0.00 | 0.00 | 49 | 1008.8 |
| 20260509194340 | 90 | 77 | 1.0 | 8.0 | 0.00 | 0.00 | 0.00 | 50 | 1009.0 |
| 20260509194334 | 89 | 337 | 2.0 | 6.0 | 0.00 | 0.00 | 0.00 | 50 | 1008.9 |
| 20260509193332 | 89 | 77 | 2.0 | 8.0 | 0.00 | 0.00 | 0.00 | 52 | 1009.0 |
| 20260509192838 | 89 | 37 | 1.0 | 7.0 | 0.00 | 0.00 | 0.00 | 53 | 1009.1 |
| 20260509192833 | 88 | 269 | 3.0 | 8.0 | 0.00 | 0.00 | 0.00 | 53 | 1009.0 |
| 20260509192332 | 89 | 84 | 2.0 | 8.0 | 0.00 | 0.00 | 0.00 | 51 | 1009.1 |
| 20260509191333 | 88 | 8 | 2.0 | 7.0 | 0.00 | 0.00 | 0.00 | 52 | 1009.1 |
| 20260509190832 | 88 | 44 | 4.0 | 10.0 | 0.00 | 0.00 | 0.00 | 53 | 1009.1 |
| 20260509190331 | 88 | 326 | 3.0 | 10.0 | 0.00 | 0.00 | 0.00 | 53 | 1009.1 |
| 20260509185828 | 88 | 319 | 2.0 | 10.0 | 0.00 | 0.00 | 0.00 | 54 | 1009.2 |
| 20260509185329 | 88 | 272 | 3.0 | 10.0 | 0.00 | 0.00 | 0.00 | 55 | 1009.1 |
| 20260509184829 | 88 | 341 | 2.0 | 8.0 | 0.00 | 0.00 | 0.00 | 53 | 1009.2 |
| 20260509184328 | 87 | 47 | 2.0 | 8.0 | 0.00 | 0.00 | 0.00 | 54 | 1009.1 |
| 20260509183827 | 87 | 325 | 2.0 | 8.0 | 0.00 | 0.00 | 0.00 | 54 | 1009.2 |
| 20260509183329 | 87 | 56 | 3.0 | 8.0 | 0.00 | 0.00 | 0.00 | 56 | 1009.2 |
| 20260509182834 | 87 | 351 | 2.0 | 8.0 | 0.00 | 0.00 | 0.00 | 55 | 1009.3 |
| 20260509182829 | 87 | 302 | 3.0 | 8.0 | 0.00 | 0.00 | 0.00 | 55 | 1009.3 |
| 20260509181828 | 87 | 321 | 2.0 | 9.0 | 0.00 | 0.00 | 0.00 | 55 | 1009.3 |
| 20260509181329 | 86 | 22 | 4.0 | 9.0 | 0.00 | 0.00 | 0.00 | 55 | 1009.4 |
| 20260509180828 | 86 | 284 | 4.0 | 9.0 | 0.00 | 0.00 | 0.00 | 55 | 1009.5 |
| 20260509180328 | 85 | 301 | 4.0 | 9.0 | 0.00 | 0.00 | 0.00 | 55 | 1009.4 |
| 20260509175835 | 86 | 312 | 3.0 | 10.0 | 0.00 | 0.00 | 0.00 | 55 | 1009.6 |
| 20260509175829 | 86 | 10 | 4.0 | 10.0 | 0.00 | 0.00 | 0.00 | 55 | 1009.6 |
| 20260509174827 | 86 | 338 | 3.0 | 10.0 | 0.00 | 0.00 | 0.00 | 56 | 1009.5 |
| 20260509174335 | 86 | 77 | 2.0 | 9.0 | 0.00 | 0.00 | 0.00 | 59 | 1009.6 |
| 20260509174329 | 86 | 344 | 3.0 | 10.0 | 0.00 | 0.00 | 0.00 | 56 | 1009.6 |
| 20260509173329 | 85 | 294 | 2.0 | 9.0 | 0.00 | 0.00 | 0.00 | 59 | 1009.7 |
| 20260509172828 | 85 | 345 | 2.0 | 11.0 | 0.00 | 0.00 | 0.00 | 59 | 1009.8 |
| 20260509172328 | 85 | 8 | 2.0 | 11.0 | 0.00 | 0.00 | 0.00 | 60 | 1009.8 |
| 20260509171829 | 85 | 52 | 2.0 | 11.0 | 0.00 | 0.00 | 0.00 | 57 | 1009.8 |
| 20260509171327 | 85 | 297 | 2.0 | 11.0 | 0.00 | 0.00 | 0.00 | 59 | 1009.8 |
| 20260509170825 | 85 | 337 | 2.0 | 8.0 | 0.00 | 0.00 | 0.00 | 59 | 1009.8 |
| 20260509170326 | 85 | 328 | 2.0 | 6.0 | 0.00 | 0.00 | 0.00 | 62 | 1009.8 |
| 20260509165826 | 85 | 316 | 2.0 | 6.0 | 0.00 | 0.00 | 0.00 | 61 | 1009.9 |
| 20260509165326 | 85 | 347 | 2.0 | 6.0 | 0.00 | 0.00 | 0.00 | 61 | 1010.0 |
| 20260509164827 | 84 | 144 | 2.0 | 6.0 | 0.00 | 0.00 | 0.00 | 60 | 1010.0 |
| 20260509164327 | 85 | 340 | 2.0 | 6.0 | 0.00 | 0.00 | 0.00 | 58 | 1010.0 |
| 20260509163825 | 84 | 278 | 2.0 | 9.0 | 0.00 | 0.00 | 0.00 | 60 | 1010.0 |
| 20260509163325 | 83 | 340 | 1.0 | 9.0 | 0.00 | 0.00 | 0.00 | 61 | 1010.0 |
| 20260509162824 | 83 | 323 | 2.0 | 9.0 | 0.00 | 0.00 | 0.00 | 58 | 1010.1 |
| 20260509162325 | 83 | 59 | 4.0 | 9.0 | 0.00 | 0.00 | 0.00 | 60 | 1010.0 |
| 20260509161831 | 82 | 11 | 2.0 | 8.0 | 0.00 | 0.00 | 0.00 | 63 | 1010.1 |
| 20260509161824 | 82 | 271 | 4.0 | 9.0 | 0.00 | 0.00 | 0.00 | 60 | 1010.0 |
| 20260509161324 | 83 | 265 | 3.0 | 9.0 | 0.00 | 0.00 | 0.00 | 59 | 1010.0 |
| 20260509160325 | 82 | 279 | 3.0 | 8.0 | 0.00 | 0.00 | 0.00 | 62 | 1010.1 |
| 20260509155824 | 81 | 249 | 2.0 | 9.0 | 0.00 | 0.00 | 0.00 | 64 | 1010.1 |
| 20260509155330 | 81 | 285 | 3.0 | 9.0 | 0.00 | 0.00 | 0.00 | 64 | 1010.1 |
| 20260509155325 | 81 | 300 | 3.0 | 9.0 | 0.00 | 0.00 | 0.00 | 66 | 1010.2 |
| 20260509154943 | 81 | 297 | 3.0 | 9.0 | 0.00 | 0.00 | 0.00 | 67 | 1010.1 |
| 20260509153824 | 81 | 286 | 4.0 | 8.0 | 0.00 | 0.00 | 0.00 | 69 | 1010.0 |
| 20260509153324 | 81 | 305 | 3.0 | 8.0 | 0.00 | 0.00 | 0.00 | 69 | 1010.0 |
| 20260509152824 | 81 | 313 | 2.0 | 8.0 | 0.00 | 0.00 | 0.00 | 73 | 1009.9 |
| 20260509152325 | 81 | 287 | 2.0 | 8.0 | 0.00 | 0.00 | 0.00 | 74 | 1009.8 |
| 20260509151825 | 80 | 293 | 2.0 | 7.0 | 0.00 | 0.00 | 0.00 | 75 | 1009.8 |
| 20260509151441 | 79 | 326 | 2.0 | 7.0 | 0.00 | 0.00 | 0.00 | 77 | 1009.8 |
| 20260509151330 | 80 | 308 | 1.0 | 7.0 | 0.00 | 0.00 | 0.00 | 76 | 1009.7 |
| 20260509151325 | 80 | 53 | 1.0 | 7.0 | 0.00 | 0.00 | 0.00 | 76 | 1009.7 |
| 20260509150324 | 79 | 273 | 2.0 | 7.0 | 0.00 | 0.00 | 0.00 | 75 | 1009.8 |
| 20260509145824 | 79 | 22 | 2.0 | 6.0 | 0.00 | 0.00 | 0.00 | 78 | 1009.8 |
| 20260509144823 | 79 | 297 | 2.0 | 7.0 | 0.00 | 0.00 | 0.00 | 77 | 1009.9 |
| 20260509144324 | 78 | 344 | 1.0 | 7.0 | 0.00 | 0.00 | 0.00 | 78 | 1009.8 |
| 20260509143825 | 78 | 237 | 2.0 | 7.0 | 0.00 | 0.00 | 0.00 | 78 | 1010.0 |
| 20260509143323 | 78 | 229 | 4.0 | 7.0 | 0.00 | 0.00 | 0.00 | 78 | 1009.9 |
| 20260509142823 | 78 | 240 | 3.0 | 7.0 | 0.00 | 0.00 | 0.00 | 79 | 1009.9 |
| 20260509142318 | 77 | 323 | 3.0 | 8.0 | 0.00 | 0.00 | 0.00 | 80 | 1009.8 |
| 20260509141818 | 77 | 300 | 3.0 | 8.0 | 0.00 | 0.00 | 0.00 | 79 | 1009.9 |
| 20260509141317 | 78 | 269 | 4.0 | 8.0 | 0.00 | 0.00 | 0.00 | 81 | 1009.9 |
| 20260509140817 | 77 | 288 | 3.0 | 8.0 | 0.00 | 0.00 | 0.00 | 81 | 1010.0 |
| 20260509140320 | 77 | 271 | 1.0 | 4.0 | 0.00 | 0.00 | 0.00 | 82 | 1009.9 |
| 20260509140315 | 77 | 219 | 1.0 | 5.0 | 0.00 | 0.00 | 0.00 | 82 | 1010.0 |
| 20260509135316 | 77 | 229 | 0.0 | 2.0 | 0.00 | 0.00 | 0.00 | 83 | 1009.8 |
| 20260509134816 | 76 | 242 | 0.0 | 2.0 | 0.00 | 0.00 | 0.00 | 83 | 1009.8 |
| 20260509134318 | 76 | 254 | 0.0 | 2.0 | 0.00 | 0.00 | 0.00 | 83 | 1009.5 |
| 20260509134313 | 76 | 224 | 0.0 | 2.0 | 0.00 | 0.00 | 0.00 | 83 | 1009.6 |
| 20260509133313 | 76 | 193 | 0.0 | 2.0 | 0.00 | 0.00 | 0.00 | 83 | 1009.5 |
| 20260509132814 | 76 | 207 | 0.0 | 2.0 | 0.00 | 0.00 | 0.00 | 84 | 1009.4 |
| 20260509132315 | 76 | 177 | 0.0 | 2.0 | 0.00 | 0.00 | 0.00 | 84 | 1009.4 |
| 20260509131813 | 75 | 122 | 0.0 | 1.0 | 0.00 | 0.00 | 0.00 | 84 | 1009.4 |
| 20260509131314 | 75 | 105 | 0.0 | 0.0 | 0.00 | 0.00 | 0.00 | 83 | 1009.4 |
| 20260509130814 | 74 | 125 | 0.0 | 0.0 | 0.00 | 0.00 | 0.00 | 82 | 1009.4 |
| 20260509130315 | 74 | 215 | 0.0 | 0.0 | 0.00 | 0.00 | 0.00 | 80 | 1009.4 |
| 20260509125814 | 74 | 82 | 0.0 | 0.0 | 0.00 | 0.00 | 0.00 | 79 | 1009.5 |
| 20260509125312 | 74 | 125 | 0.0 | 0.0 | 0.00 | 0.00 | 0.00 | 74 | 1009.5 |
| 20260509124813 | 73 | 209 | 0.0 | 0.0 | 0.00 | 0.00 | 0.00 | 69 | 1009.6 |
| 20260509124309 | 73 | 188 | 0.0 | 0.0 | 0.00 | 0.00 | 0.00 | 50 | 1009.5 |
| 20260509123807 | 73 | 188 | 0.0 | 0.0 | 0.00 | 0.00 | 0.00 | 47 | 1009.5 |
| 20260509123309 | 72 | 188 | 3.0 | 0.0 | 0.00 | 0.00 | 0.00 | 43 | 1009.5 |
| 20260509122809 | 0 | 0.0 | 0.0 | 0.00 | 0.00 | 0.00 | 1009.6 | ||
| 20260509122215 | 0 | 0.0 | 0.0 | 0.00 | 0.00 | 0.00 | 1009.6 | ||
| 20260509121714 | 0 | 0.0 | 0.0 | 0.00 | 0.00 | 0.00 | 1009.7 | ||
| 20260509121214 | 0 | 0.0 | 0.0 | 0.00 | 0.00 | 0.00 | 1009.8 | ||
| 20260509120624 | 0 | 0.0 | 0.0 | 0.00 | 0.00 | 0.00 | 1009.9 | ||
| 20260509120618 | 0 | 0.0 | 0.0 | 0.00 | 0.00 | 0.00 | 1009.8 | ||
| 20260509115618 | 0 | 0.0 | 0.0 | 0.00 | 0.00 | 0.00 | 1009.9 | ||
| 20260509115114 | 0 | 0.0 | 0.0 | 0.00 | 0.00 | 0.00 | 1009.9 | ||
| 20260509114615 | 0 | 0.0 | 0.0 | 0.00 | 0.00 | 0.00 | 1009.9 | ||
| 20260509114114 | 0 | 0.0 | 0.0 | 0.00 | 0.00 | 0.00 | 1009.9 | ||
| 20260509113611 | 0 | 0.0 | 0.0 | 0.00 | 0.00 | 0.00 | 1009.9 | ||
| 20260509113111 | 0 | 0.0 | 0.0 | 0.00 | 0.00 | 0.00 | 1009.8 | ||
| 20260509112610 | 0 | 0.0 | 0.0 | 0.00 | 0.00 | 0.00 | 1009.7 | ||
| 20260509112019 | 0 | 0.0 | 0.0 | 0.00 | 0.00 | 0.00 | 1009.7 | ||
| 20260509111518 | 0 | 0.0 | 0.0 | 0.00 | 0.00 | 0.00 | 1009.6 | ||
| 20260509111016 | 0 | 0.0 | 0.0 | 0.00 | 0.00 | 0.00 | 1009.6 | ||
| 20260509110515 | 0 | 0.0 | 0.0 | 0.00 | 0.00 | 0.00 | 1009.3 | ||
| 20260509110011 | 0 | 0.0 | 0.0 | 0.00 | 0.00 | 0.00 | 1009.4 | ||
| 20260509105421 | 0 | 0.0 | 0.0 | 0.00 | 0.00 | 0.00 | 1008.9 | ||
| 20260509105416 | 0 | 0.0 | 0.0 | 0.00 | 0.00 | 0.00 | 1008.1 | ||
| 20260509104410 | 0 | 244 | 3.0 | 2.0 | 0.00 | 0.00 | 0.00 | 1007.9 | |
| 20260509103910 | 0 | 244 | 3.0 | 9.0 | 0.00 | 0.00 | 0.00 | 1007.7 | |
| 20260509103407 | 70 | 244 | 3.0 | 9.0 | 0.00 | 0.00 | 0.00 | 16 | 1007.6 |
| 20260509102906 | 70 | 244 | 3.0 | 9.0 | 0.00 | 0.00 | 0.00 | 16 | 1007.6 |
| 20260509102402 | 70 | 155 | 3.0 | 9.0 | 0.00 | 0.00 | 0.00 | 17 | 1007.4 |
| 20260509101901 | 71 | 141 | 2.0 | 8.0 | 0.00 | 0.00 | 0.00 | 20 | 1007.3 |
| 20260509101407 | 71 | 197 | 4.0 | 10.0 | 0.00 | 0.00 | 0.00 | 23 | 1007.1 |
| 20260509101401 | 71 | 132 | 2.0 | 8.0 | 0.00 | 0.00 | 0.00 | 22 | 1007.2 |
| 20260509100402 | 71 | 197 | 4.0 | 10.0 | 0.00 | 0.00 | 0.00 | 24 | 1007.2 |
| 20260509095859 | 71 | 266 | 3.0 | 10.0 | 0.00 | 0.00 | 0.00 | 24 | 1006.9 |
| 20260509095400 | 70 | 117 | 4.0 | 10.0 | 0.00 | 0.00 | 0.00 | 26 | 1006.4 |
| 20260509094900 | 70 | 124 | 3.0 | 10.0 | 0.00 | 0.00 | 0.00 | 28 | 1006.5 |
| 20260509094358 | 70 | 100 | 3.0 | 12.0 | 0.00 | 0.00 | 0.00 | 29 | 1006.6 |
| 20260509093857 | 70 | 250 | 4.0 | 12.0 | 0.00 | 0.00 | 0.00 | 29 | 1006.8 |
| 20260509093355 | 70 | 94 | 4.0 | 12.0 | 0.00 | 0.00 | 0.00 | 29 | 1006.9 |
| 20260509092856 | 70 | 119 | 5.0 | 12.0 | 0.00 | 0.00 | 0.00 | 28 | 1006.9 |
| 20260509092354 | 70 | 140 | 6.0 | 12.0 | 0.00 | 0.00 | 0.00 | 29 | 1007.0 |
| 20260509091855 | 70 | 113 | 4.0 | 12.0 | 0.00 | 0.00 | 0.00 | 30 | 1007.4 |
| 20260509091355 | 70 | 111 | 3.0 | 10.0 | 0.00 | 0.00 | 0.00 | 32 | 1007.8 |
| 20260509090855 | 70 | 115 | 3.0 | 9.0 | 0.00 | 0.00 | 0.00 | 33 | 1008.1 |
| 20260509090401 | 70 | 68 | 1.0 | 5.0 | 0.00 | 0.00 | 0.00 | 37 | 1008.5 |
| 20260509090355 | 70 | 154 | 2.0 | 9.0 | 0.00 | 0.00 | 0.00 | 35 | 1008.3 |
| 20260509085355 | 70 | 236 | 1.0 | 6.0 | 0.00 | 0.00 | 0.00 | 39 | 1008.5 |
| 20260509084856 | 70 | 134 | 1.0 | 6.0 | 0.00 | 0.00 | 0.00 | 40 | 1008.4 |
| 20260509084353 | 70 | 101 | 1.0 | 6.0 | 0.00 | 0.00 | 0.00 | 41 | 1008.5 |
| 20260509083854 | 70 | 175 | 1.0 | 6.0 | 0.00 | 0.00 | 0.00 | 43 | 1008.7 |
| 20260509083352 | 70 | 116 | 1.0 | 3.0 | 0.00 | 0.00 | 0.00 | 45 | 1008.9 |
| 20260509082855 | 70 | 165 | 0.0 | 3.0 | 0.00 | 0.00 | 0.00 | 45 | 1009.4 |
| 20260509082352 | 70 | 224 | 0.0 | 2.0 | 0.00 | 0.00 | 0.00 | 46 | 1009.6 |
| 20260509081857 | 70 | 214 | 1.0 | 3.0 | 0.00 | 0.00 | 0.00 | 45 | 1010.0 |
| 20260509081853 | 70 | 214 | 0.0 | 2.0 | 0.00 | 0.00 | 0.00 | 46 | 1009.7 |
| 20260509080853 | 70 | 207 | 1.0 | 3.0 | 0.00 | 0.00 | 0.00 | 44 | 1010.2 |
| 20260509080354 | 70 | 205 | 1.0 | 3.0 | 0.00 | 0.00 | 0.00 | 44 | 1010.5 |
| 20260509075853 | 69 | 213 | 1.0 | 3.0 | 0.00 | 0.00 | 0.00 | 43 | 1010.7 |
| 20260509075359 | 69 | 148 | 0.0 | 2.0 | 0.00 | 0.00 | 0.00 | 42 | 1010.6 |
| 20260509075354 | 69 | 173 | 0.0 | 3.0 | 0.00 | 0.00 | 0.00 | 43 | 1010.7 |
| 20260509074352 | 69 | 220 | 0.0 | 1.0 | 0.00 | 0.00 | 0.00 | 45 | 1010.6 |
| 20260509073851 | 69 | 221 | 0.0 | 0.0 | 0.00 | 0.00 | 0.00 | 49 | 1010.5 |
| 20260509073351 | 69 | 221 | 0.0 | 0.0 | 0.00 | 0.00 | 0.00 | 54 | 1010.3 |
| 20260509072852 | 69 | 221 | 0.0 | 0.0 | 0.00 | 0.00 | 0.00 | 56 | 1010.2 |
| 20260509072350 | 69 | 221 | 0.0 | 0.0 | 0.00 | 0.00 | 0.00 | 62 | 1010.1 |
| 20260509071856 | 69 | 221 | 0.0 | 0.0 | 0.00 | 0.00 | 0.00 | 61 | 1010.1 |
| 20260509071852 | 69 | 221 | 0.0 | 0.0 | 0.00 | 0.00 | 0.00 | 61 | 1010.0 |
| 20260509071510 | 69 | 221 | 0.0 | 0.0 | 0.00 | 0.00 | 0.00 | 65 | 1010.0 |
| 20260509070350 | 69 | 221 | 0.0 | 0.0 | 0.00 | 0.00 | 0.00 | 64 | 1010.0 |
| 20260509065851 | 70 | 221 | 0.0 | 0.0 | 0.00 | 0.00 | 0.00 | 66 | 1010.1 |
| 20260509065351 | 70 | 228 | 0.0 | 0.0 | 0.00 | 0.00 | 0.00 | 67 | 1009.9 |
| 20260509064858 | 70 | 114 | 0.0 | 0.0 | 0.00 | 0.00 | 0.00 | 76 | 1010.4 |
| 20260509064851 | 70 | 238 | 0.0 | 0.0 | 0.00 | 0.00 | 0.00 | 67 | 1010.1 |
| 20260509064352 | 69 | 167 | 0.0 | 0.0 | 0.00 | 0.00 | 0.00 | 69 | 1010.0 |
| 20260509063851 | 69 | 114 | 0.0 | 0.0 | 0.00 | 0.00 | 0.00 | 72 | 1010.5 |